(°F)
46°
46°
46°
46°
46°
46°
47°
(°F)
37°
36°
36°
36°
37°
37°
37°
E
E
E
E
ENE
ENE
ENE
(mph)
10-13
10-14
10-14
10-14
9-13
9-13
10-14
(in)
0
0
0
0
0
0
0
(%)
0
0
7
7
7
7
0

Sun elevation

/ -30°
sun-icon
UV 2
06:21
18:44
Full moon (187°)
19:15
06:19

METAR for 53.5°N 50.15°E (UWWW)

Time Conditions Temperature/
Dewpoint
Wind Visibility Weather Clouds Pressure Change Raw
VFR 46.4°F / 30.2°F 80º 10kt >10km - Scattered Clouds 3300ft 1024 No Significant change UWWW 202200Z 08005MPS 9999 SCT033 08/M01 Q1024 R15/CLRD60 NOSIG RMK QFE756/1008
VFR 46.4°F / 30.2°F 80º 12kt >10km - Scattered Clouds 3300ft 1024 No Significant change UWWW 202130Z 08006MPS 9999 SCT033 08/M01 Q1024 R15/CLRD60 NOSIG RMK QFE756/1008
VFR 46.4°F / 30.2°F 90º variable 070º to 130º 12kt >10km - Scattered Clouds 3300ft 1024 No Significant change UWWW 202100Z 09006MPS 070V130 9999 SCT033 08/M01 Q1024 R15/CLRD60 NOSIG RMK QFE756/1008
VFR 46.4°F / 30.2°F 90º 10kt >10km - Scattered Clouds 3300ft 1024 No Significant change UWWW 202030Z 09005MPS 9999 SCT033 08/M01 Q1024 R15/CLRD60 NOSIG RMK QFE756/1008
VFR 46.4°F / 30.2°F 90º 10kt >10km - Scattered Clouds 3300ft 1024 No Significant change UWWW 202000Z 09005MPS 9999 SCT033 08/M01 Q1024 R15/CLRD60 NOSIG RMK QFE756/1008
VFR 46.4°F / 32°F 80º variable 060º to 160º 8kt >10km - Scattered Clouds 3300ft 1024 No Significant change UWWW 201930Z 08004MPS 060V160 9999 SCT033 08/M00 Q1024 R15/CLRD60 NOSIG RMK QFE756/1009
VFR 46.4°F / 32°F 80º 8kt >10km - Scattered Clouds 3300ft 1024 No Significant change UWWW 201900Z 08004MPS 9999 SCT033 08/M00 Q1024 R15/CLRD60 NOSIG RMK QFE757/1009
VFR 46.4°F / 30.2°F 90º variable 070º to 140º 8kt >10km - Scattered Clouds 3300ft 1024 No Significant change UWWW 201830Z 09004MPS 070V140 9999 SCT033 08/M01 Q1024 R15/CLRD60 NOSIG RMK QFE756/1009
VFR 46.4°F / 30.2°F 90º 8kt >10km - Scattered Clouds 3300ft 1024 No Significant change UWWW 201800Z 09004MPS 9999 SCT033 08/M01 Q1024 R15/CLRD60 NOSIG RMK QFE757/1009
VFR 48.2°F / 30.2°F 80º 8kt >10km - Clouds and Visibility OK 1024 No Significant change UWWW 201730Z 08004MPS CAVOK 09/M01 Q1024 R15/CLRD60 NOSIG RMK QFE757/1009
VFR 48.2°F / 30.2°F 70º 8kt >10km - Clouds and Visibility OK 1024 No Significant change UWWW 201700Z 07004MPS CAVOK 09/M01 Q1024 R15/CLRD60 NOSIG RMK QFE756/1009
VFR 50°F / 30.2°F 80º 10kt >10km - Clouds and Visibility OK 1024 No Significant change UWWW 201630Z 08005MPS CAVOK 10/M01 Q1024 R15/CLRD60 NOSIG RMK QFE756/1009
VFR 50°F / 30.2°F 80º 8kt >10km - Clouds and Visibility OK 1024 No Significant change UWWW 201600Z 08004MPS CAVOK 10/M01 Q1024 R15/CLRD60 NOSIG RMK QFE756/1009
VFR 50°F / 30.2°F 70º 8kt >10km - Clouds and Visibility OK 1024 No Significant change UWWW 201530Z 07004MPS CAVOK 10/M01 Q1024 R15/CLRD60 NOSIG RMK QFE756/1009
VFR 50°F / 32°F 70º 6kt >10km - Clouds and Visibility OK 1024 No Significant change UWWW 201500Z 07003MPS CAVOK 10/M00 Q1024 R15/CLRD60 NOSIG RMK QFE756/1008
VFR 51.8°F / 28.4°F 90º variable 070º to 140º 6kt >10km - Clouds and Visibility OK 1024 No Significant change UWWW 201430Z 09003MPS 070V140 CAVOK 11/M02 Q1024 R15/CLRD60 NOSIG RMK QFE756/1008
VFR 53.6°F / 28.4°F 110º 8kt >10km - Clouds and Visibility OK 1024 No Significant change UWWW 201400Z 11004MPS CAVOK 12/M02 Q1024 R15/CLRD60 NOSIG RMK QFE756/1008
VFR 53.6°F / 26.6°F 110º 8kt >10km - Clouds and Visibility OK 1024 No Significant change UWWW 201330Z 11004MPS CAVOK 12/M03 Q1024 R15/CLRD60 NOSIG RMK QFE756/1008
VFR 53.6°F / 28.4°F 90º 10kt >10km - Clouds and Visibility OK 1024 No Significant change UWWW 201300Z 09005MPS CAVOK 12/M02 Q1024 R15/CLRD60 NOSIG RMK QFE756/1008
VFR 53.6°F / 28.4°F 100º 10kt >10km - Clouds and Visibility OK 1024 No Significant change UWWW 201230Z 10005MPS CAVOK 12/M02 Q1024 R15/CLRD60 NOSIG RMK QFE756/1009
VFR 53.6°F / 26.6°F 90º 10kt >10km - Clouds and Visibility OK 1024 No Significant change UWWW 201200Z 09005MPS CAVOK 12/M03 Q1024 R15/CLRD60 NOSIG RMK QFE756/1009
VFR 53.6°F / 28.4°F 90º 10kt >10km - Clouds and Visibility OK 1024 No Significant change UWWW 201130Z 09005MPS CAVOK 12/M02 Q1024 R15/CLRD60 NOSIG RMK QFE757/1009
VFR 53.6°F / 26.6°F 100º 12kt >10km - Clouds and Visibility OK 1024 No Significant change UWWW 201100Z 10006MPS CAVOK 12/M03 Q1024 R15/CLRD60 NOSIG RMK QFE757/1009
VFR 53.6°F / 28.4°F 110º variable 070º to 140º 8kt >10km - Clouds and Visibility OK 1025 No Significant change UWWW 201030Z 11004MPS 070V140 CAVOK 12/M02 Q1025 R15/CLRD60 NOSIG RMK QFE757/1009

VFR

46.4°F / 30.2°F

[More]
Wind 80º 10kt
Visibility >10km
Weather -
Clouds Scattered Clouds 3300ft
Pressure 1024
Change No Significant change
Raw UWWW 202200Z 08005MPS 9999 SCT033 08/M01 Q1024 R15/CLRD60 NOSIG RMK QFE756/1008

VFR

46.4°F / 30.2°F

[More]
Wind 80º 12kt
Visibility >10km
Weather -
Clouds Scattered Clouds 3300ft
Pressure 1024
Change No Significant change
Raw UWWW 202130Z 08006MPS 9999 SCT033 08/M01 Q1024 R15/CLRD60 NOSIG RMK QFE756/1008

VFR

46.4°F / 30.2°F

[More]
Wind 90º variable 070º to 130º 12kt
Visibility >10km
Weather -
Clouds Scattered Clouds 3300ft
Pressure 1024
Change No Significant change
Raw UWWW 202100Z 09006MPS 070V130 9999 SCT033 08/M01 Q1024 R15/CLRD60 NOSIG RMK QFE756/1008

VFR

46.4°F / 30.2°F

[More]
Wind 90º 10kt
Visibility >10km
Weather -
Clouds Scattered Clouds 3300ft
Pressure 1024
Change No Significant change
Raw UWWW 202030Z 09005MPS 9999 SCT033 08/M01 Q1024 R15/CLRD60 NOSIG RMK QFE756/1008

VFR

46.4°F / 30.2°F

[More]
Wind 90º 10kt
Visibility >10km
Weather -
Clouds Scattered Clouds 3300ft
Pressure 1024
Change No Significant change
Raw UWWW 202000Z 09005MPS 9999 SCT033 08/M01 Q1024 R15/CLRD60 NOSIG RMK QFE756/1008

VFR

46.4°F / 32°F

[More]
Wind 80º variable 060º to 160º 8kt
Visibility >10km
Weather -
Clouds Scattered Clouds 3300ft
Pressure 1024
Change No Significant change
Raw UWWW 201930Z 08004MPS 060V160 9999 SCT033 08/M00 Q1024 R15/CLRD60 NOSIG RMK QFE756/1009

VFR

46.4°F / 32°F

[More]
Wind 80º 8kt
Visibility >10km
Weather -
Clouds Scattered Clouds 3300ft
Pressure 1024
Change No Significant change
Raw UWWW 201900Z 08004MPS 9999 SCT033 08/M00 Q1024 R15/CLRD60 NOSIG RMK QFE757/1009

VFR

46.4°F / 30.2°F

[More]
Wind 90º variable 070º to 140º 8kt
Visibility >10km
Weather -
Clouds Scattered Clouds 3300ft
Pressure 1024
Change No Significant change
Raw UWWW 201830Z 09004MPS 070V140 9999 SCT033 08/M01 Q1024 R15/CLRD60 NOSIG RMK QFE756/1009

VFR

46.4°F / 30.2°F

[More]
Wind 90º 8kt
Visibility >10km
Weather -
Clouds Scattered Clouds 3300ft
Pressure 1024
Change No Significant change
Raw UWWW 201800Z 09004MPS 9999 SCT033 08/M01 Q1024 R15/CLRD60 NOSIG RMK QFE757/1009

VFR

48.2°F / 30.2°F

[More]
Wind 80º 8kt
Visibility >10km
Weather -
Clouds Clouds and Visibility OK
Pressure 1024
Change No Significant change
Raw UWWW 201730Z 08004MPS CAVOK 09/M01 Q1024 R15/CLRD60 NOSIG RMK QFE757/1009

VFR

48.2°F / 30.2°F

[More]
Wind 70º 8kt
Visibility >10km
Weather -
Clouds Clouds and Visibility OK
Pressure 1024
Change No Significant change
Raw UWWW 201700Z 07004MPS CAVOK 09/M01 Q1024 R15/CLRD60 NOSIG RMK QFE756/1009

VFR

50°F / 30.2°F

[More]
Wind 80º 10kt
Visibility >10km
Weather -
Clouds Clouds and Visibility OK
Pressure 1024
Change No Significant change
Raw UWWW 201630Z 08005MPS CAVOK 10/M01 Q1024 R15/CLRD60 NOSIG RMK QFE756/1009

VFR

50°F / 30.2°F

[More]
Wind 80º 8kt
Visibility >10km
Weather -
Clouds Clouds and Visibility OK
Pressure 1024
Change No Significant change
Raw UWWW 201600Z 08004MPS CAVOK 10/M01 Q1024 R15/CLRD60 NOSIG RMK QFE756/1009

VFR

50°F / 30.2°F

[More]
Wind 70º 8kt
Visibility >10km
Weather -
Clouds Clouds and Visibility OK
Pressure 1024
Change No Significant change
Raw UWWW 201530Z 07004MPS CAVOK 10/M01 Q1024 R15/CLRD60 NOSIG RMK QFE756/1009

VFR

50°F / 32°F

[More]
Wind 70º 6kt
Visibility >10km
Weather -
Clouds Clouds and Visibility OK
Pressure 1024
Change No Significant change
Raw UWWW 201500Z 07003MPS CAVOK 10/M00 Q1024 R15/CLRD60 NOSIG RMK QFE756/1008

VFR

51.8°F / 28.4°F

[More]
Wind 90º variable 070º to 140º 6kt
Visibility >10km
Weather -
Clouds Clouds and Visibility OK
Pressure 1024
Change No Significant change
Raw UWWW 201430Z 09003MPS 070V140 CAVOK 11/M02 Q1024 R15/CLRD60 NOSIG RMK QFE756/1008

VFR

53.6°F / 28.4°F

[More]
Wind 110º 8kt
Visibility >10km
Weather -
Clouds Clouds and Visibility OK
Pressure 1024
Change No Significant change
Raw UWWW 201400Z 11004MPS CAVOK 12/M02 Q1024 R15/CLRD60 NOSIG RMK QFE756/1008

VFR

53.6°F / 26.6°F

[More]
Wind 110º 8kt
Visibility >10km
Weather -
Clouds Clouds and Visibility OK
Pressure 1024
Change No Significant change
Raw UWWW 201330Z 11004MPS CAVOK 12/M03 Q1024 R15/CLRD60 NOSIG RMK QFE756/1008

VFR

53.6°F / 28.4°F

[More]
Wind 90º 10kt
Visibility >10km
Weather -
Clouds Clouds and Visibility OK
Pressure 1024
Change No Significant change
Raw UWWW 201300Z 09005MPS CAVOK 12/M02 Q1024 R15/CLRD60 NOSIG RMK QFE756/1008

VFR

53.6°F / 28.4°F

[More]
Wind 100º 10kt
Visibility >10km
Weather -
Clouds Clouds and Visibility OK
Pressure 1024
Change No Significant change
Raw UWWW 201230Z 10005MPS CAVOK 12/M02 Q1024 R15/CLRD60 NOSIG RMK QFE756/1009

VFR

53.6°F / 26.6°F

[More]
Wind 90º 10kt
Visibility >10km
Weather -
Clouds Clouds and Visibility OK
Pressure 1024
Change No Significant change
Raw UWWW 201200Z 09005MPS CAVOK 12/M03 Q1024 R15/CLRD60 NOSIG RMK QFE756/1009

VFR

53.6°F / 28.4°F

[More]
Wind 90º 10kt
Visibility >10km
Weather -
Clouds Clouds and Visibility OK
Pressure 1024
Change No Significant change
Raw UWWW 201130Z 09005MPS CAVOK 12/M02 Q1024 R15/CLRD60 NOSIG RMK QFE757/1009

VFR

53.6°F / 26.6°F

[More]
Wind 100º 12kt
Visibility >10km
Weather -
Clouds Clouds and Visibility OK
Pressure 1024
Change No Significant change
Raw UWWW 201100Z 10006MPS CAVOK 12/M03 Q1024 R15/CLRD60 NOSIG RMK QFE757/1009

VFR

53.6°F / 28.4°F

[More]
Wind 110º variable 070º to 140º 8kt
Visibility >10km
Weather -
Clouds Clouds and Visibility OK
Pressure 1025
Change No Significant change
Raw UWWW 201030Z 11004MPS 070V140 CAVOK 12/M02 Q1025 R15/CLRD60 NOSIG RMK QFE757/1009

TAF for 53.5°N 50.15°E (UWWW)

From till


Maximum Temperature 13ºC on . Minimum Temperature 4ºC on .
From till Wind 80º 12kt. Visibility 10km or more. Broken Clouds 1600ft.
Temporarly from till Wind 120º 19kt. Light Showers Rain . Broken Clouds 1100ft.

Raw: TAF UWWW 201951Z 2021/2121 08006MPS 9999 BKN016 TX13/2111Z TN04/2101Z TEMPO 2100/2121 12010MPS -SHRA BKN011CB

Current satellite and rain images for 53.5°N 50.15°E

The location marker is placed on 53.5°N 50.15°E. [More]

The real-time satellite image combines visible light during daytime with infrared radiation during nighttime. At night, the image is not dark as infrared radiation can detect temperature differences. Unfortunately, low clouds and fog are difficult to distinguish from ground temperatures and thus can be almost invisible during the night. Meteosat satellite images for Europe are updated in real-time every 5 minutes. GOES-16/GOES-17 (North & South America) and Himawari (Asia) images update every 10 minutes.

Copyright 2021 EUMETSAT / meteoblue. / Copyright 2021 meteoblue

Radar and precipitation nowcast for 53.5°N 50.15°E

Drizzle
Light
Moderate
Heavy
Very Heavy
Hail

The location marker is placed on 53.5°N 50.15°E. This animation shows the precipitation radar for the last hour, as well as a 1h forecast. Drizzle or light snow fall might be invisible for the radar. Precipitation intensity is colour coded, ranging from light blue to orange.